Regional Weather Roundup
Issued by NWS State College, PA

Home | Current Version | Previous Version | Graphics & Text | Print | Product List | Glossary On
Versions: 1 2 3 4 5 6 7 8 9 10 11 12 13 14 15 16 17 18 19 20 21 22 23 24 25 26 27 28 29 30 31 32 33 34 35 36 37 38 39 40 41 42 43 44 45 46 47 48 49 50
000
ASUS41 KCTP 252103
RWRCTP

REGIONAL WEATHER ROUNDUP
NATIONAL WEATHER SERVICE STATE COLLEGE PA
500 PM EDT TUE JUL 25 2017

Note: "fair" indicates few or no clouds below 12,000 feet with no
significant weather and/or obstructions to visibility.

* = STATION THAT DOES NOT REPORT PRECIPITATION /E.G. RAIN...SNOW...ETC/
    THUNDER OR FOG.

PAZ002>004-007>009-013>016-020>023-029>032-252200-
WESTERN PENNSYLVANIA

CITY           SKY/WX    TMP DP  RH WIND       PRES   REMARKS
ERIE           SUNNY     72  55  55 NE9       30.23R
MEADVILLE      MOSUNNY   71  57  61 N8        30.22S
FRANKLIN*      PTSUNNY   72  55  56 N9        30.21S
NEW CASTLE     FAIR      76  59  55 VRB5      30.21S
BEAVER COUNTY  NOT AVBL
BUTLER*        PTSUNNY   75  57  53 N5        30.20S
PITTSBURGH INT PTSUNNY   74  57  55 CALM      30.20S
PITTSBURGH     MOSUNNY   73  56  54 NW3       30.19F
INDIANA*       CLOUDY    72  59  64 N7        30.23R
LATROBE        PTSUNNY   72  59  64 NW6       30.21F
WASHINGTON CO* CLOUDY    70  57  64 NW5       30.22S
$$

PAZ004>006-010>012-017>019-024>028-033>037-041-042-045-046-049>053-252200-
CENTRAL PENNSYLVANIA

CITY           SKY/WX    TMP DP  RH WIND       PRES   REMARKS
BRADFORD       CLOUDY    66  55  67 VRB7      30.23S
DUBOIS         CLOUDY    70  54  56 N9        30.20F
CLEARFIELD     CLOUDY    71  54  54 NW6       30.20S
JOHNSTOWN      CLOUDY    67  57  70 NW8       30.22S
ALTOONA        CLOUDY    69  58  67 NW7       30.20S
STATE COLLEGE  PTSUNNY   72  57  60 NW6       30.18S
WILLIAMSPORT   CLOUDY    74  58  57 N9        30.14S
SELINSGROVE    CLOUDY    74  61  63 NW6       30.15S
FT INDIANTOWN  CLOUDY    73  59  62 N6        30.13S
CAPITAL CITY   PTSUNNY   75  58  55 NW9       30.14R
HARRISBURG     CLOUDY    75  59  57 NW7       30.13R
YORK           CLOUDY    74  62  66 N5        30.14R
$$

PAZ038>040-043-044-047-048-054-055-060>062-067>071-252200-
EASTERN PENNSYLVANIA

CITY           SKY/WX    TMP DP  RH WIND       PRES   REMARKS
SCRANTON       CLOUDY    72  61  68 VRB5      30.15F
MOUNT POCONO   CLOUDY    63  59  87 NW7       30.17S
ALLENTOWN      CLOUDY    74  59  59 VRB6      30.13R
QUAKERTOWN*    CLOUDY    72  64  78 CALM      30.14R
READING        CLOUDY    76  63  64 NW9       30.11S
LANCASTER      CLOUDY    76  61  59 NW8       30.13R
COATESVILLE    PTCLDY    75  63  64 NW10      30.14S
POTTSTOWN      CLOUDY    73  65  75 N5        30.14R
BLUE BELL      CLOUDY    72  64  78 CALM      30.13S
DOYLESTOWN     LGT RAIN  69  67  93 NE3       30.12R
WILLOW GROVE   NOT AVBL
NORTH PHILA    CLOUDY    77  63  61 CALM      30.12F
PHILADELPHIA   LGT RAIN  75  61  61 VRB5G20   30.11R
$$




USA.gov is the U.S. government's official web portal to all federal, state and local government web resources and services.